{"data":{"norad_id":54117,"intl_designator":"2022-138E","name":"ONEWEB-0499","alt_names":[],"object_type":"PAYLOAD","status":"ACTIVE","operator":null,"country":"UK","launch_date":"2022-10-22","launch_site_code":"SRILR","launch_vehicle":null,"mission":null,"orbit_class":"UNKNOWN","rcs_meters":null,"size_class":null,"mass_kg":null,"dimensions":null,"purposes":["comms"],"wikipedia_slug":null,"has_3d_model":false,"image_url":null,"decayed_at":null,"tle_current":{"epoch":"2026-05-25T03:52:17.890752Z","epoch_age_seconds":61432,"freshness":"FRESH","line1":"1 54117U 22138E   26145.16131818  .00000049  00000+0  90141-4 0  9992","line2":"2 54117  87.9149 309.5627 0001772  85.3922 274.7413 13.19724933173782","mean_motion":13.19724933,"eccentricity":0.0001772,"inclination_deg":87.9149,"raan_deg":309.5627,"arg_perigee_deg":85.3922,"mean_anomaly_deg":274.7413,"bstar":9.0141e-5,"rev_number":17378,"period_min":109.11364663897,"perigee_km":1184.4304835379,"apogee_km":1187.1111324651,"semimajor_km":7563.9078080015,"source":"CELESTRAK","updated_at":"2026-05-25T13:38:22.584789Z"}}}